FW7582 Weather Reports


Display with metric or nautical units.
time (UTC)temp
F
wind
direction
speed
MPH
gust
MPH
rain 1hr
in
rain 24hr
in
rain mn
in
humidity
%
barometer
mb
20260505003754 78 359 0.0 2.0 0.00 0.00 0.00 38 1012.6
20260505003252 78 111 2.0 3.0 0.00 0.00 0.00 35 1012.4
20260505002748 79 6 0.0 1.0 0.00 0.00 0.00 38 1012.6
20260505002245 79 278 0.0 1.0 0.00 0.00 0.00 40 1012.6
20260505001743 79 118 1.0 1.0 0.00 0.00 0.00 36 1012.6
20260505001240 79 22 1.0 3.0 0.00 0.00 0.00 37 1012.4
20260505000736 79 97 0.0 2.0 0.00 0.00 0.00 39 1012.4
20260505000235 80 275 0.0 2.0 0.00 0.00 0.00 33 1012.8
20260504235731 80 352 0.0 1.0 0.00 0.00 0.00 37 1012.6
20260504235227 80 54 0.0 1.0 0.00 0.00 0.00 36 1012.8
20260504234725 80 296 0.0 1.0 0.00 0.00 0.00 35 1012.8
20260504234222 81 181 1.0 2.0 0.00 0.00 0.00 35 1012.7
20260504233718 82 326 0.0 1.0 0.00 0.00 0.00 36 1012.8
20260504233214 82 294 1.0 2.0 0.00 0.00 0.00 37 1012.7
20260504232711 81 309 1.0 2.0 0.00 0.00 0.00 35 1012.9
20260504232208 82 293 1.0 2.0 0.00 0.00 0.00 36 1012.6
20260504231704 81 346 0.0 1.0 0.00 0.00 0.00 35 1012.8
20260504231201 81 71 2.0 3.0 0.00 0.00 0.00 35 1012.6
20260504230657 82 324 1.0 1.0 0.00 0.00 0.00 36 1012.8
20260504230156 83 356 1.0 1.0 0.00 0.00 0.00 35 1012.7
20260504225654 82 346 0.0 0.0 0.00 0.00 0.00 37 1012.9
20260504225149 82 254 2.0 2.0 0.00 0.00 0.00 33 1013.0
20260504224647 81 221 1.0 3.0 0.00 0.00 0.00 37 1013.0
20260504224143 81 340 0.0 2.0 0.00 0.00 0.00 38 1013.1
20260504223641 82 285 0.0 3.0 0.00 0.00 0.00 35 1013.0
20260504223136 83 289 2.0 3.0 0.00 0.00 0.00 32 1013.4
20260504222634 84 269 0.0 1.0 0.00 0.00 0.00 37 1013.2
20260504222130 83 275 0.0 2.0 0.00 0.00 0.00 36 1013.2
20260504221628 82 285 1.0 3.0 0.00 0.00 0.00 37 1013.3
20260504221125 84 212 1.0 2.0 0.00 0.00 0.00 31 1013.5
20260504220621 85 320 2.0 3.0 0.00 0.00 0.00 31 1013.7
20260504220119 84 288 1.0 1.0 0.00 0.00 0.00 31 1013.7
20260504215615 82 325 0.0 1.0 0.00 0.00 0.00 35 1013.4
20260504215113 84 11 0.0 3.0 0.00 0.00 0.00 33 1013.4
20260504214608 84 161 1.0 2.0 0.00 0.00 0.00 32 1013.7
20260504214105 82 341 0.0 3.0 0.00 0.00 0.00 43 1013.4
20260504213601 84 317 0.0 1.0 0.00 0.00 0.00 38 1013.4
20260504213058 84 208 1.0 3.0 0.00 0.00 0.00 37 1013.3
20260504212554 84 142 1.0 2.0 0.00 0.00 0.00 35 1013.4
20260504212052 84 331 0.0 2.0 0.00 0.00 0.00 36 1013.2
20260504211549 84 325 0.0 3.0 0.00 0.00 0.00 35 1013.5
20260504211045 83 320 1.0 2.0 0.00 0.00 0.00 37 1013.4
20260504210542 83 322 0.0 4.0 0.00 0.00 0.00 40 1013.3
20260504210039 85 308 0.0 1.0 0.00 0.00 0.00 41 1013.4
20260504205537 84 309 1.0 1.0 0.00 0.00 0.00 37 1013.8
20260504205035 82 273 0.0 1.0 0.00 0.00 0.00 43 1013.8
20260504204532 83 293 0.0 1.0 0.00 0.00 0.00 45 1013.7
20260504204031 82 357 0.0 0.0 0.00 0.00 0.00 40 1013.9
20260504203529 82 194 1.0 2.0 0.00 0.00 0.00 36 1013.9
20260504203026 82 333 0.0 1.0 0.00 0.00 0.00 41 1013.7
20260504202521 82 294 1.0 1.0 0.00 0.00 0.00 38 1013.8
20260504202019 82 314 0.0 1.0 0.00 0.00 0.00 45 1013.5
20260504201515 82 353 0.0 1.0 0.00 0.00 0.00 38 1013.8
20260504201013 81 19 0.0 1.0 0.00 0.00 0.00 37 1013.7
20260504200510 80 320 0.0 2.0 0.00 0.00 0.00 45 1013.7
20260504200006 79 302 0.0 1.0 0.00 0.00 0.00 41 1013.7
20260504195502 79 347 0.0 1.0 0.00 0.00 0.00 42 1013.9
20260504194959 80 229 0.0 2.0 0.00 0.00 0.00 43 1013.8
20260504194455 80 42 0.0 1.0 0.00 0.00 0.00 40 1013.8
20260504193951 80 301 0.0 0.0 0.00 0.00 0.00 38 1014.0
20260504193449 79 348 0.0 1.0 0.00 0.00 0.00 39 1013.9
20260504192947 79 56 0.0 0.0 0.00 0.00 0.00 40 1014.0
20260504192444 80 170 0.0 1.0 0.00 0.00 0.00 36 1014.0
20260504191943 79 335 0.0 1.0 0.00 0.00 0.00 48 1014.1
20260504191441 79 313 0.0 0.0 0.00 0.00 0.00 45 1014.3
20260504190935 77 294 1.0 2.0 0.00 0.00 0.00 38 1014.2
20260504190431 78 328 0.0 1.0 0.00 0.00 0.00 46 1014.0
20260504185928 78 288 0.0 0.0 0.00 0.00 0.00 44 1014.2
20260504185425 78 346 0.0 1.0 0.00 0.00 0.00 40 1014.3
20260504184921 77 351 0.0 0.0 0.00 0.00 0.00 41 1014.2
20260504184417 76 307 0.0 1.0 0.00 0.00 0.00 49 1014.4
20260504183913 77 327 2.0 3.0 0.00 0.00 0.00 42 1014.2
20260504183411 77 340 1.0 2.0 0.00 0.00 0.00 44 1014.0
20260504182908 76 2 0.0 1.0 0.00 0.00 0.00 44 1014.4
20260504182405 75 328 0.0 0.0 0.00 0.00 0.00 46 1014.1
20260504181902 75 281 1.0 1.0 0.00 0.00 0.00 50 1014.2
20260504181359 74 87 1.0 1.0 0.00 0.00 0.00 45 1014.2
20260504180858 74 21 0.0 0.0 0.00 0.00 0.00 47 1014.4
20260504180356 74 271 1.0 3.0 0.00 0.00 0.00 45 1014.4
20260504175854 74 279 0.0 2.0 0.00 0.00 0.00 45 1014.3
20260504175350 74 328 0.0 0.0 0.00 0.00 0.00 48 1014.4
20260504174849 73 25 1.0 2.0 0.00 0.00 0.00 52 1014.3
20260504174346 73 2 0.0 1.0 0.00 0.00 0.00 53 1014.1
20260504173843 73 347 0.0 0.0 0.00 0.00 0.00 52 1014.1
20260504173340 72 333 0.0 0.0 0.00 0.00 0.00 56 1014.3
20260504172836 72 300 0.0 1.0 0.00 0.00 0.00 53 1014.2
20260504172333 71 13 0.0 1.0 0.00 0.00 0.00 58 1014.3
20260504171829 70 308 0.0 1.0 0.00 0.00 0.00 63 1014.3
20260504171326 70 23 0.0 0.0 0.00 0.00 0.00 61 1014.2
20260504170824 70 33 0.0 0.0 0.00 0.00 0.00 62 1014.2
20260504170320 69 34 0.0 1.0 0.00 0.00 0.00 60 1014.3
20260504160238 65 21 0.0 0.0 0.00 0.00 0.00 68 1014.1
20260504150704 57 19 0.0 0.0 0.00 0.00 0.00 89 1013.8
20260504150201 56 19 0.0 0.0 0.00 0.00 0.00 91 1013.9
20260504141130 50 348 0.0 0.0 0.00 0.00 0.00 99 1013.4
20260504140627 50 349 0.0 0.0 0.00 0.00 0.00 99 1013.4
20260504140122 50 349 0.0 0.0 0.00 0.00 0.00 99 1013.3
20260504130550 48 352 0.0 0.0 0.00 0.00 0.00 99 1013.3
20260504110438 50 351 0.0 0.0 0.00 0.00 0.00 98 1012.8
20260504100401 51 351 0.0 0.0 0.00 0.00 0.00 97 1012.8
20260504081754 52 349 0.0 0.0 0.00 0.00 0.00 94 1012.6
20260504081250 52 349 0.0 0.0 0.00 0.00 0.00 94 1012.9
20260504080747 53 349 0.0 0.0 0.00 0.00 0.00 94 1013.0
20260504080243 53 349 0.0 0.0 0.00 0.00 0.00 94 1012.8
20260504070211 55 347 0.0 0.0 0.00 0.00 0.00 90 1013.0
20260504060131 58 345 0.0 0.0 0.00 0.00 0.00 85 1012.9
20260504050600 60 344 0.0 0.0 0.00 0.00 0.00 84 1012.9
20260504045554 61 344 0.0 0.0 0.00 0.00 0.00 83 1012.9
20260504045049 61 344 0.0 0.0 0.00 0.00 0.00 81 1013.1
20260504044547 62 344 0.0 0.0 0.00 0.00 0.00 81 1013.1
20260504044043 62 344 0.0 0.0 0.00 0.00 0.00 81 1012.8
20260504043540 62 344 0.0 0.0 0.00 0.00 0.00 81 1012.9
20260504043038 62 344 0.0 0.0 0.00 0.00 0.00 80 1013.2
20260504042534 62 344 0.0 0.0 0.00 0.00 0.00 79 1012.7
20260504042032 62 25 0.0 0.0 0.00 0.00 0.00 79 1012.9
20260504041527 63 25 0.0 0.0 0.00 0.00 0.00 78 1013.0
20260504041023 63 25 0.0 0.0 0.00 0.00 0.00 78 1013.0
20260504040521 64 25 0.0 0.0 0.00 0.00 0.00 77 1012.9
20260504040018 64 26 0.0 0.0 0.00 0.00 0.00 77 1012.7
20260504035515 64 26 0.0 0.0 0.00 0.00 0.00 75 1012.7
20260504035011 65 26 0.0 0.0 0.00 0.00 0.00 74 1012.6
20260504034509 66 26 0.0 0.0 0.00 0.00 0.00 74 1012.7
20260504034006 66 26 0.0 0.0 0.00 0.00 0.00 73 1012.5
20260504033503 66 26 0.0 0.0 0.00 0.00 0.00 70 1012.6
20260504033000 67 26 0.0 0.0 0.00 0.00 0.00 70 1012.6
20260504032457 67 26 0.0 0.0 0.00 0.00 0.00 68 1012.9
20260504031954 68 26 0.0 0.0 0.00 0.00 0.00 67 1012.4
20260504031451 68 26 0.0 0.0 0.00 0.00 0.00 65 1012.5
20260504030947 69 26 0.0 0.0 0.00 0.00 0.00 64 1012.5
20260504030445 70 26 0.0 0.0 0.00 0.00 0.00 62 1012.4
20260504025940 70 29 0.0 0.0 0.00 0.00 0.00 59 1012.4
20260504025437 71 29 0.0 0.0 0.00 0.00 0.00 59 1012.5
20260504024935 71 29 0.0 0.0 0.00 0.00 0.00 58 1012.3
20260504024432 72 29 0.0 0.0 0.00 0.00 0.00 57 1012.4
20260504023928 73 29 0.0 0.0 0.00 0.00 0.00 55 1012.2
20260504023425 74 15 0.0 0.0 0.00 0.00 0.00 52 1012.4
20260504022921 75 29 0.0 0.0 0.00 0.00 0.00 51 1012.2
20260504022417 76 23 0.0 0.0 0.00 0.00 0.00 48 1012.5
20260504021914 77 28 0.0 1.0 0.00 0.00 0.00 47 1012.3
20260504021411 77 19 0.0 1.0 0.00 0.00 0.00 46 1012.1
20260504020909 77 20 0.0 1.0 0.00 0.00 0.00 49 1012.3
20260504020405 77 18 0.0 0.0 0.00 0.00 0.00 53 1012.2
20260504015901 78 10 0.0 0.0 0.00 0.00 0.00 55 1012.3
20260504015357 79 28 0.0 0.0 0.00 0.00 0.00 49 1012.3
20260504014853 79 14 0.0 0.0 0.00 0.00 0.00 44 1012.3
20260504014349 79 22 0.0 0.0 0.00 0.00 0.00 41 1012.5
20260504013847 80 13 0.0 1.0 0.00 0.00 0.00 43 1012.2
20260504013345 80 65 0.0 1.0 0.00 0.00 0.00 41 1012.4
20260504012841 80 323 0.0 1.0 0.00 0.00 0.00 42 1012.3
20260504012339 81 16 0.0 1.0 0.00 0.00 0.00 43 1012.6
20260504011837 81 42 0.0 1.0 0.00 0.00 0.00 42 1012.5
20260504011333 81 8 0.0 2.0 0.00 0.00 0.00 41 1012.7
20260504010829 81 5 0.0 1.0 0.00 0.00 0.00 41 1012.4
20260504010324 82 18 0.0 1.0 0.00 0.00 0.00 42 1012.5
20260504005821 82 13 0.0 1.0 0.00 0.00 0.00 41 1012.7
20260504005318 82 32 0.0 1.0 0.00 0.00 0.00 46 1012.5
20260504004816 82 343 0.0 0.0 0.00 0.00 0.00 42 1012.7
20260504004313 82 42 0.0 0.0 0.00 0.00 0.00 42 1012.9